Location: Berlise
(49.6641°N, 4.1077°E)
Time: 01:17:26
(UTC+00:00)

METEOR-M - Pass Details

Date: 27 January 2021
Orbit: 815 x 820 km, 98.5° (Epoch: 28 February)

Event Time Altitude Azimuth Distance (km) Brightness Sun altitude
Rises 04:25:07 0° 15° (NNE) 3,363 7.6 -28.6°
Reaches altitude 10° 04:27:29 10° 17° (NNE) 2,426 6.8 -28.2°
Maximum altitude 04:32:52 79° 104° (ESE) 840 4.1 -27.3°
Enters shadow 04:34:34 45° 183° (S) 1,107 4.7 -27.1°
